Temperature
7 7 6 6 6 6 6 6 6 6 6 6 6 6 6 6 6 6 6 6 6 6 6 6 6 6 6 6 6 7 7 7 7 7 7 7 7 7 7 7 7 7 7
6 6 6 6 6 6 5 5 5 5 5 5 5 5 5 5 5 5 5 5 5 5 5 5 6 6 6 6 6 6 6 6 6 6 6 5 6 6 6 6 6 6 7
5 5 5 5 5 5 5 5 5 5 5 4 4 4 4 4 5 5 5 5 5 5 5 5 5 5 5 5 5 5 5 5 5 5 5 5 5 5 6 6 6 6 6
5 5 5 5 5 5 4 4 4 4 4 4 4 4 4 4 4 4 4 4 4 4 4 4 4 4 4 5 5 5 5 5 5 5 5 4 4 4 4 5 5 5 6
4 4 4 4 4 4 4 4 4 3 3 3 3 3 4 4 4 4 4 4 4 4 3 4 4 4 4 4 4 4 4 4 4 4 4 4 4 4 3 4 4 5 5
4 4 4 4 4 4 3 3 3 3 3 3 3 3 3 3 3 3 3 3 3 3 3 3 3 3 3 3 3 4 4 4 4 4 4 3 3 3 3 3 3 4 5
3 3 3 3 3 3 3 3 3 3 2 2 2 2 2 2 3 3 2 2 3 3 3 3 3 3 3 3 3 3 3 3 3 3 3 3 3 3 2 2 2 2 3
3 3 3 3 3 3 3 2 2 2 2 2 2 2 2 2 2 2 2 2 2 2 2 2 2 2 2 2 2 2 2 3 3 2 2 2 2 2 2 2 2 1 2
2 2 2 2 2 2 2 2 2 2 1 1 1 1 1 1 1 1 1 1 1 1 1 1 2 2 2 2 2 2 2 2 2 2 2 2 2 2 1 1 1 1 0
1 1 1 1 1 1 1 1 1 1 1 1 1 0 0 0 0 0 1 1 1 1 1 1 1 1 1 1 1 1 1 1 1 1 1 1 1 1 1 1 1 0 0
0 0 1 1 1 0 0 0 0 0 0 0 0 -0 -0 -0 -0 -0 -0 0 0 0 0 0 1 1 1 1 1 1 1 1 1 1 1 1 1 1 1 0 0 0 -0
-0 -0 -0 -0 -0 -0 -0 -0 -0 -0 -1 -1 -1 -1 -1 -1 -1 -1 -1 -1 -0 -0 -0 -0 -0 0 0 0 0 0 -0 -0 0 0 0 0 0 0 0 0 -0 -0 -1
-1 -1 -1 -1 -1 -1 -1 -1 -1 -1 -1 -1 -1 -1 -1 -1 -1 -1 -1 -1 -1 -1 -1 -1 -1 -1 -1 -1 -1 -1 -1 -1 -1 -1 -1 -1 -0 -0 -0 -0 -1 -1 -1
-2 -2 -2 -1 -2 -2 -1 -1 -1 -1 -2 -2 -2 -2 -2 -2 -2 -2 -2 -2 -2 -2 -2 -1 -2 -1 -1 -1 -1 -1 -1 -1 -2 -2 -1 -1 -1 -1 -1 -1 -1 -1 -2
-2 -2 -2 -2 -2 -2 -2 -2 -2 -2 -2 -2 -2 -2 -2 -2 -3 -3 -3 -3 -3 -3 -2 -2 -2 -2 -2 -2 -2 -2 -2 -2 -2 -2 -2 -2 -2 -2 -2 -2 -2 -2 -2
-3 -3 -3 -3 -3 -3 -3 -3 -3 -3 -3 -3 -3 -3 -3 -3 -3 -3 -3 -4 -3 -3 -3 -3 -3 -3 -3 -3 -3 -3 -3 -3 -3 -3 -3 -3 -3 -3 -3 -3 -3 -3 -3
-3 -3 -3 -3 -3 -3 -4 -4 -4 -4 -3 -3 -3 -4 -4 -4 -4 -4 -4 -4 -4 -4 -4 -4 -4 -4 -4 -4 -4 -4 -4 -4 -4 -4 -4 -4 -4 -4 -4 -3 -3 -3 -4
-4 -4 -4 -4 -4 -4 -4 -4 -4 -4 -4 -4 -4 -4 -5 -5 -5 -5 -5 -5 -5 -5 -5 -5 -4 -5 -4 -4 -5 -5 -5 -5 -5 -5 -5 -5 -5 -4 -5 -4 -4 -4 -4
-4 -4 -4 -4 -4 -4 -5 -5 -5 -5 -5 -5 -5 -5 -5 -5 -5 -5 -5 -5 -5 -5 -5 -5 -5 -5 -5 -5 -6 -6 -6 -6 -6 -6 -6 -6 -6 -5 -6 -6 -5 -5 -5
-4 -4 -4 -4 -5 -5 -5 -5 -5 -5 -5 -5 -5 -6 -6 -6 -6 -6 -6 -6 -6 -6 -6 -6 -6 -6 -6 -6 -6 -7 -7 -7 -7 -6 -6 -6 -6 -6 -6 -6 -6 -6 -5
-5 -5 -5 -5 -5 -5 -5 -6 -6 -6 -6 -6 -6 -6 -6 -6 -7 -7 -7 -7 -7 -7 -7 -7 -7 -7 -7 -7 -7 -7 -8 -7 -7 -7 -7 -7 -7 -7 -7 -7 -7 -6 -6
-5 -5 -5 -5 -6 -6 -6 -6 -6 -6 -6 -7 -7 -7 -7 -7 -7 -7 -7 -8 -8 -8 -8 -8 -8 -8 -8 -8 -8 -8 -8 -8 -8 -8 -7 -7 -7 -7 -7 -7 -7 -7 -7
-6 -6 -6 -6 -6 -6 -6 -7 -7 -7 -7 -7 -7 -7 -7 -8 -8 -8 -8 -8 -8 -8 -8 -8 -8 -8 -8 -8 -8 -8 -8 -8 -8 -8 -8 -8 -8 -8 -8 -8 -8 -8 -8
-7 -7 -7 -7 -7 -7 -7 -7 -7 -7 -8 -8 -8 -8 -8 -8 -8 -8 -9 -9 -9 -9 -9 -9 -9 -9 -9 -9 -9 -9 -8 -9 -8 -8 -8 -8 -8 -8 -8 -8 -8 -8 -8
-7 -7 -7 -7 -7 -7 -7 -7 -8 -8 -8 -8 -8 -9 -9 -9 -9 -9 -9 -9 -9 -9 -10 -10 -10 -10 -9 -9 -9 -9 -9 -9 -9 -9 -9 -9 -8 -8 -9 -9 -9 -9 -9
-8 -8 -8 -8 -8 -8 -8 -8 -8 -8 -9 -9 -9 -9 -9 -9 -9 -10 -10 -10 -10 -10 -10 -10 -10 -10 -10 -10 -10 -10 -10 -9 -9 -9 -9 -9 -9 -9 -9 -9 -9 -9 -9
Wind_Speed
5 4 5 5 4 4 4 4 4 3 3 3 2 2 2 1 0 1 2 2 2 2 2 1 1 1 1 1 1 1 1 1 1 1 2 2 2 0 0 0 1 1 0
2 3 4 4 5 5 5 4 4 4 4 3 3 2 2 1 1 1 1 2 2 2 2 2 1 1 1 1 1 1 1 0 1 1 1 1 2 2 2 1 1 1 1
6 5 4 5 5 5 6 5 4 4 3 3 2 2 1 1 0 1 1 1 2 3 2 2 1 1 1 2 2 2 2 1 1 0 2 2 2 2 2 2 1 1 1
5 5 5 5 5 6 5 5 4 4 3 4 4 5 3 3 2 2 2 2 2 2 3 2 2 2 1 2 3 2 2 2 2 1 1 1 2 2 2 3 2 2 2
5 5 5 6 5 5 4 4 4 4 3 4 5 5 4 3 1 1 2 2 2 2 3 3 2 2 2 2 2 2 2 2 3 2 1 1 1 1 2 3 4 3 3
3 3 3 3 3 3 3 3 4 4 4 4 4 4 5 4 3 3 3 3 2 2 3 3 3 3 3 3 3 2 3 3 3 3 2 2 2 2 2 3 4 4 4
3 2 2 2 2 3 3 3 4 4 4 4 4 5 5 5 6 5 5 4 3 3 4 3 3 3 3 3 3 3 3 4 3 4 3 3 3 2 2 3 3 4 4
2 2 3 3 3 3 3 4 4 4 4 4 4 4 4 4 4 4 4 4 4 4 4 4 4 4 4 4 3 3 4 4 4 5 5 4 3 3 3 3 2 3 3
2 2 1 2 2 3 3 4 4 3 4 4 4 4 4 4 4 4 4 4 3 3 4 4 4 4 4 4 4 4 5 4 5 5 5 4 4 3 3 3 3 4 4
2 1 1 1 1 1 1 1 2 3 3 3 3 3 3 4 4 4 4 4 4 3 3 4 4 4 4 5 4 4 4 4 5 4 5 5 4 3 3 4 4 4 5
2 2 2 1 1 1 0 0 1 1 2 2 2 3 3 3 3 4 5 4 4 4 4 4 4 4 5 5 5 5 5 5 5 5 5 6 5 5 4 4 4 5 4
3 2 2 2 2 1 1 1 1 1 2 2 2 2 3 3 3 4 4 3 4 4 4 4 4 5 5 4 5 6 6 6 6 6 6 6 5 6 5 5 5 5 5
3 3 2 2 2 2 2 2 2 2 2 1 1 2 2 3 4 4 4 3 3 3 3 3 4 5 5 5 5 5 5 6 6 6 6 7 6 6 5 5 6 5 6
3 3 3 3 3 2 2 2 3 2 2 2 1 2 3 3 4 4 3 3 3 3 3 4 4 4 4 5 5 5 5 5 6 6 6 7 7 8 7 6 6 6 6
4 4 4 3 3 3 3 3 3 3 2 2 2 3 3 3 3 3 3 2 3 3 3 3 3 4 4 4 5 5 5 5 6 6 6 7 8 9 8 7 6 6 6
5 5 4 4 4 3 3 3 3 3 2 2 3 3 3 2 2 2 2 2 2 2 2 2 3 4 4 7 8 6 5 5 6 6 6 6 8 9 10 11 10 9 8
5 5 5 4 4 4 3 3 3 3 2 2 3 3 3 2 2 2 1 1 1 1 2 2 3 4 6 8 9 9 5 5 5 6 5 5 6 7 6 8 9 10 11
6 6 5 4 4 3 2 2 2 2 2 2 3 3 2 2 2 2 1 2 1 2 2 3 3 4 6 8 8 8 4 4 5 5 5 6 6 6 7 6 6 7 7
6 5 4 4 2 2 1 1 1 2 2 2 2 2 2 2 2 2 2 2 2 2 2 3 3 3 5 8 8 7 3 3 5 5 5 6 6 10 10 7 7 7 7
5 5 4 2 1 2 1 1 1 2 3 3 3 2 2 2 2 3 3 2 2 2 3 3 3 4 5 7 7 7 3 4 4 5 5 8 9 10 10 7 7 8 7
6 5 3 2 2 2 1 1 2 3 3 3 3 3 2 2 2 2 2 2 2 2 2 3 4 4 5 6 8 8 4 4 5 5 5 5 9 11 11 9 7 8 7
6 4 3 3 3 1 1 2 3 3 3 2 3 3 3 2 2 2 2 2 2 2 3 3 4 4 5 6 7 9 8 7 5 5 5 6 9 9 10 8 8 10 8
5 4 3 3 3 2 1 2 3 3 2 2 2 3 3 3 2 2 2 2 2 2 3 3 3 4 4 5 8 9 9 9 5 5 7 8 9 8 7 8 9 8 5
5 4 3 3 4 3 2 2 2 2 2 2 2 2 2 3 2 2 2 2 2 2 3 3 4 4 4 4 5 4 5 7 6 5 6 7 8 7 6 6 6 5 4
5 4 3 4 4 3 3 2 2 1 1 2 2 3 2 2 3 3 2 3 3 4 4 4 4 4 4 6 8 6 4 3 4 3 2 2 3 3 3 3 4 4 4
5 4 4 4 4 3 3 3 2 1 1 2 2 2 2 2 2 3 4 5 5 6 7 6 6 5 7 9 9 8 8 7 6 3 2 3 3 4 4 4 4 4 4
Wind_Direction
224 192 186 183 172 171 172 170 166 162 150 159 163 172 189 187 174 143 156 153 144 144 128 104 85 101 148 157 135 80 71 44 27 51 4 342 335 339 307 38 82 69 151
219 199 187 181 182 184 186 184 183 178 178 182 183 189 178 205 212 188 177 177 158 162 160 129 132 124 154 143 140 99 120 76 55 115 99 344 333 327 302 278 231 284 331
202 200 196 197 192 191 192 195 195 188 184 160 131 119 98 64 136 217 216 234 186 177 172 174 162 171 176 187 188 179 168 190 257 143 146 157 227 294 301 281 261 266 285
200 198 196 199 205 208 199 192 185 184 183 165 161 167 180 198 222 215 226 241 200 190 181 179 182 189 190 202 208 199 209 188 205 241 252 197 174 187 285 297 285 281 273
202 201 202 205 209 206 198 193 177 179 180 179 177 185 193 202 200 197 206 222 233 214 199 190 189 196 204 211 214 216 222 210 208 208 221 240 264 200 196 258 285 299 271
212 204 201 196 206 199 193 188 179 186 184 184 182 189 199 194 191 204 213 223 234 234 219 210 204 206 208 215 218 221 227 224 223 221 212 200 205 211 208 232 253 271 277
204 200 196 201 211 204 198 194 188 194 193 191 196 200 206 199 201 206 212 216 225 235 229 228 221 217 222 223 218 223 234 226 222 224 228 227 233 227 220 227 249 267 284
220 213 218 212 215 213 205 199 200 204 201 200 208 210 208 212 217 215 215 221 227 230 227 220 222 223 224 226 222 228 235 229 225 230 230 232 238 235 224 218 220 261 278
256 237 233 223 222 217 213 209 207 213 214 211 210 214 213 219 227 220 216 222 233 235 223 218 221 222 223 221 223 233 234 228 231 232 232 236 239 240 237 228 214 210 244
310 316 310 276 249 231 228 215 212 223 224 214 216 232 229 226 226 220 220 221 230 226 220 222 221 225 227 225 225 244 237 232 236 235 233 239 244 247 243 234 230 225 229
308 312 309 310 338 16 22 294 251 245 243 236 232 232 240 238 232 231 228 225 227 221 221 225 224 229 232 229 229 237 239 239 243 242 237 239 237 239 243 239 234 234 233
318 323 330 358 5 0 347 322 304 281 271 261 253 247 246 238 235 244 241 231 227 228 226 227 230 234 239 235 232 235 236 237 241 244 244 245 242 238 237 236 236 237 238
326 333 340 337 330 330 326 318 312 303 306 298 281 274 263 243 237 243 244 236 230 231 230 227 235 239 239 235 234 237 240 241 242 242 242 247 244 245 241 239 239 239 247
305 313 313 310 310 311 309 311 314 318 318 311 292 277 268 259 250 245 240 235 231 230 232 234 238 244 247 244 242 241 243 246 248 247 246 247 243 244 242 244 244 240 244
304 298 294 295 301 305 307 310 313 322 322 320 305 283 279 276 265 252 245 240 239 242 238 238 248 252 249 246 247 244 242 245 250 251 251 252 254 254 251 249 245 239 241
293 295 294 291 289 286 291 300 308 313 319 314 303 306 308 303 283 264 248 243 246 252 256 258 257 259 256 261 260 254 244 247 249 253 254 255 258 262 264 261 257 250 242
291 288 286 276 275 273 274 275 289 308 320 320 317 316 316 310 303 303 311 278 267 271 273 269 268 270 265 263 262 261 253 245 248 252 256 262 263 266 260 266 269 267 264
301 290 284 284 282 278 283 284 303 315 317 312 316 321 325 327 326 329 319 303 287 263 262 268 268 276 277 272 268 268 262 254 253 250 250 256 264 262 261 258 262 263 265
297 292 285 279 281 282 279 284 310 319 316 308 308 315 318 317 322 316 307 303 291 285 278 277 272 273 281 278 274 274 262 259 263 260 254 254 257 264 266 259 261 266 269
313 312 311 313 299 287 269 270 291 304 300 300 301 307 304 298 297 296 300 299 291 285 289 291 285 276 278 279 280 276 267 263 268 267 261 259 261 266 264 256 256 260 264
319 321 323 317 293 282 262 268 280 279 288 304 317 317 310 300 290 290 294 293 295 299 296 294 294 288 284 283 280 276 267 256 263 266 266 264 267 269 269 265 258 262 269
324 325 323 316 310 295 254 265 275 285 301 316 319 314 313 308 306 304 300 295 287 293 294 295 299 295 291 288 284 279 274 269 260 262 261 263 271 273 276 274 270 272 274
317 318 310 309 313 305 266 261 281 293 301 308 305 305 315 317 305 291 291 298 286 277 284 286 288 295 295 292 291 287 283 280 271 265 265 268 270 274 275 273 276 276 267
312 316 311 306 310 310 298 270 281 291 287 289 297 304 310 311 313 304 291 283 275 273 278 281 284 291 296 293 293 290 290 285 280 278 275 274 274 272 267 269 275 271 263
310 310 301 294 299 307 303 303 297 284 294 298 302 305 302 297 302 304 292 281 262 260 268 270 273 281 287 289 297 300 289 281 272 282 282 282 276 272 271 267 265 264 265
305 308 306 303 300 304 304 306 298 271 267 291 301 300 299 298 301 301 309 307 302 301 298 295 293 289 294 305 308 308 304 300 293 289 277 273 272 267 266 267 269 262 260
Height
1493 1494 1495 1496 1497 1497 1498 1499 1500 1501 1503 1504 1505 1506 1507 1509 1510 1511 1512 1513 1514 1515 1516 1516 1517 1517 1517 1518 1519 1520 1520 1521 1522 1522 1522 1523 1524 1525 1526 1526 1527 1528 1528
1489 1490 1491 1492 1493 1494 1495 1496 1497 1498 1499 1500 1502 1503 1505 1506 1507 1508 1509 1510 1511 1512 1513 1513 1514 1514 1514 1515 1516 1517 1517 1518 1519 1520 1520 1520 1522 1521 1522 1523 1524 1525 1525
1486 1487 1488 1489 1490 1490 1491 1492 1493 1494 1496 1497 1499 1500 1501 1502 1503 1504 1505 1506 1508 1508 1509 1510 1511 1511 1512 1512 1513 1513 1514 1515 1516 1517 1518 1519 1518 1518 1519 1519 1520 1521 1522
1483 1484 1485 1486 1487 1487 1489 1489 1490 1491 1492 1494 1494 1495 1496 1496 1498 1500 1501 1503 1504 1505 1506 1506 1507 1508 1508 1509 1509 1510 1511 1512 1512 1514 1515 1516 1516 1517 1515 1516 1516 1517 1517
1480 1481 1482 1483 1484 1485 1486 1487 1487 1488 1489 1490 1491 1492 1492 1494 1495 1496 1498 1499 1500 1501 1502 1503 1503 1504 1505 1505 1506 1506 1507 1508 1509 1509 1510 1511 1512 1513 1513 1511 1512 1512 1513
1478 1479 1480 1481 1482 1483 1483 1484 1484 1485 1486 1486 1487 1488 1489 1490 1491 1492 1493 1494 1496 1497 1498 1499 1499 1500 1501 1502 1502 1503 1503 1504 1505 1505 1506 1507 1508 1508 1508 1508 1507 1507 1507
1476 1476 1477 1478 1478 1479 1480 1480 1481 1481 1482 1483 1484 1484 1485 1486 1487 1488 1489 1490 1491 1492 1493 1494 1495 1496 1497 1498 1498 1499 1499 1500 1500 1501 1502 1503 1503 1504 1505 1505 1504 1503 1502
1474 1474 1475 1476 1476 1477 1477 1477 1478 1478 1478 1479 1479 1480 1481 1482 1483 1484 1485 1485 1486 1487 1489 1490 1491 1492 1493 1494 1494 1494 1495 1495 1496 1496 1497 1498 1498 1499 1500 1501 1501 1499 1498
1473 1473 1473 1474 1474 1474 1474 1475 1475 1475 1475 1475 1476 1476 1477 1478 1478 1479 1480 1481 1482 1483 1484 1485 1487 1488 1488 1489 1490 1490 1490 1490 1491 1491 1492 1493 1493 1494 1495 1496 1497 1497 1494
1472 1472 1472 1472 1472 1472 1472 1472 1472 1472 1472 1472 1471 1472 1472 1473 1474 1474 1475 1476 1477 1478 1479 1480 1481 1483 1483 1484 1484 1484 1485 1485 1486 1486 1487 1487 1488 1488 1490 1491 1491 1491 1491
1470 1470 1470 1470 1470 1470 1470 1469 1469 1469 1468 1468 1468 1468 1468 1469 1469 1469 1470 1471 1472 1473 1474 1475 1476 1477 1478 1478 1479 1479 1479 1480 1480 1481 1481 1481 1482 1483 1484 1484 1485 1485 1485
1470 1469 1468 1468 1467 1467 1466 1466 1466 1465 1465 1464 1464 1464 1464 1464 1464 1464 1465 1466 1466 1468 1469 1470 1471 1471 1472 1472 1472 1473 1473 1474 1474 1474 1475 1475 1476 1477 1477 1478 1478 1478 1479
1469 1468 1467 1466 1465 1464 1464 1463 1462 1462 1461 1461 1460 1459 1459 1459 1459 1459 1460 1460 1461 1462 1463 1464 1465 1465 1465 1466 1466 1467 1467 1467 1468 1468 1468 1469 1470 1470 1471 1471 1471 1472 1472
1468 1466 1465 1464 1463 1462 1461 1460 1459 1459 1458 1457 1456 1455 1454 1454 1454 1454 1455 1455 1456 1457 1458 1458 1459 1459 1459 1460 1460 1461 1461 1461 1461 1462 1462 1462 1463 1464 1464 1464 1465 1465 1465
1466 1464 1463 1462 1461 1460 1459 1458 1457 1456 1455 1453 1452 1451 1450 1450 1449 1449 1449 1450 1451 1451 1452 1452 1453 1453 1453 1454 1454 1454 1454 1455 1455 1455 1455 1456 1456 1457 1458 1458 1459 1459 1459
1463 1462 1461 1459 1458 1457 1456 1455 1454 1453 1452 1450 1449 1448 1447 1446 1445 1445 1445 1445 1446 1446 1446 1447 1447 1448 1448 1448 1448 1449 1448 1448 1448 1448 1449 1449 1450 1450 1451 1452 1452 1453 1453
1461 1459 1458 1456 1455 1454 1453 1452 1451 1450 1449 1447 1446 1445 1443 1442 1442 1441 1441 1441 1441 1441 1441 1442 1442 1442 1442 1442 1443 1443 1443 1442 1442 1442 1442 1442 1443 1444 1444 1445 1445 1446 1446
1459 1457 1455 1453 1453 1452 1451 1450 1449 1448 1446 1445 1443 1442 1440 1439 1439 1438 1437 1437 1437 1437 1437 1437 1437 1437 1436 1436 1437 1437 1436 1436 1436 1436 1436 1436 1436 1437 1438 1438 1438 1438 1438
1456 1454 1453 1451 1450 1449 1448 1447 1446 1445 1443 1442 1440 1439 1438 1437 1436 1435 1434 1434 1434 1433 1433 1432 1432 1432 1432 1432 1431 1431 1430 1430 1430 1430 1430 1430 1430 1431 1432 1432 1431 1431 1431
1454 1451 1450 1449 1447 1446 1445 1444 1443 1442 1440 1439 1438 1437 1436 1434 1433 1432 1432 1431 1430 1430 1429 1428 1428 1428 1427 1427 1427 1426 1425 1424 1424 1424 1424 1425 1424 1425 1426 1426 1425 1424 1424
1451 1449 1447 1446 1445 1444 1443 1441 1440 1439 1438 1437 1436 1434 1433 1432 1431 1430 1429 1428 1427 1426 1426 1425 1424 1423 1423 1423 1422 1422 1421 1420 1419 1419 1418 1419 1419 1420 1420 1420 1419 1419 1419
1449 1447 1445 1443 1443 1442 1440 1438 1437 1437 1436 1434 1433 1432 1431 1430 1429 1428 1426 1425 1424 1423 1422 1421 1420 1420 1419 1419 1417 1417 1417 1416 1415 1414 1413 1413 1414 1414 1414 1414 1413 1413 1414
1446 1444 1442 1441 1440 1439 1438 1436 1435 1434 1433 1431 1430 1429 1428 1427 1426 1425 1424 1423 1422 1421 1420 1418 1417 1416 1415 1414 1413 1413 1412 1411 1410 1409 1408 1409 1409 1409 1408 1408 1408 1408 1408
1444 1442 1440 1438 1437 1436 1435 1434 1432 1431 1430 1429 1427 1426 1425 1424 1423 1422 1421 1420 1419 1418 1416 1415 1414 1412 1411 1410 1409 1408 1407 1406 1405 1404 1404 1404 1403 1403 1403 1403 1402 1402 1402
1441 1439 1437 1435 1434 1433 1432 1431 1430 1428 1427 1426 1424 1423 1422 1421 1420 1419 1418 1417 1416 1415 1414 1412 1411 1410 1408 1407 1406 1404 1402 1402 1401 1399 1399 1398 1398 1397 1397 1397 1397 1396 1396
1438 1436 1434 1433 1431 1430 1429 1428 1427 1425 1424 1422 1421 1420 1419 1418 1417 1416 1415 1414 1413 1412 1411 1409 1408 1406 1405 1403 1402 1400 1399 1398 1397 1395 1394 1393 1392 1392 1392 1392 1391 1391 1390